TimeCDT,TemperatureF,Dew PointF,Humidity,Sea Level PressureIn,VisibilityMPH,Wind Direction,Wind SpeedMPH,Gust SpeedMPH,PrecipitationIn,Events,Conditions,WindDirDegrees,DateUTC
12:53 AM,45.0,27.0,49,29.81,10.0,WSW,10.4,-,N/A,,Mostly Cloudy,240,2012-10-08 05:53:00
1:53 AM,44.1,27.0,51,29.79,10.0,WSW,10.4,-,N/A,,Clear,240,2012-10-08 06:53:00
2:53 AM,44.1,27.0,51,29.78,10.0,WSW,8.1,-,N/A,,Clear,250,2012-10-08 07:53:00
3:53 AM,45.0,26.1,48,29.75,10.0,WSW,11.5,-,N/A,,Overcast,240,2012-10-08 08:53:00
4:53 AM,46.0,26.1,46,29.72,10.0,WSW,13.8,-,N/A,,Overcast,240,2012-10-08 09:53:00
5:53 AM,48.9,26.1,41,29.70,10.0,WSW,18.4,-,N/A,,Overcast,240,2012-10-08 10:53:00
6:53 AM,50.0,26.1,39,29.69,10.0,WSW,15.0,-,N/A,,Overcast,240,2012-10-08 11:53:00
7:53 AM,52.0,26.1,37,29.70,10.0,WSW,15.0,-,N/A,,Scattered Clouds,250,2012-10-08 12:53:00
8:53 AM,54.0,27.0,35,29.71,10.0,West,11.5,-,N/A,,Partly Cloudy,260,2012-10-08 13:53:00
9:53 AM,59.0,32.0,36,29.70,10.0,West,19.6,-,N/A,,Clear,280,2012-10-08 14:53:00
10:53 AM,60.1,37.0,42,29.71,10.0,WNW,26.5,36.8,N/A,,Clear,300,2012-10-08 15:53:00
11:53 AM,61.0,37.9,42,29.73,10.0,WNW,23.0,-,N/A,,Clear,300,2012-10-08 16:53:00
12:53 PM,62.1,39.9,44,29.74,10.0,NW,21.9,31.1,N/A,,Clear,310,2012-10-08 17:53:00
1:53 PM,63.0,39.0,41,29.74,10.0,WNW,20.7,27.6,N/A,,Clear,300,2012-10-08 18:53:00
2:53 PM,62.1,37.9,41,29.74,10.0,NW,17.3,27.6,N/A,,Mostly Cloudy,310,2012-10-08 19:53:00
3:53 PM,60.1,37.9,44,29.75,10.0,WNW,20.7,26.5,N/A,,Overcast,300,2012-10-08 20:53:00
4:53 PM,57.9,39.9,51,29.76,10.0,NW,19.6,24.2,0.00,Rain,Light Rain,310,2012-10-08 21:53:00
5:53 PM,54.0,46.0,75,29.77,10.0,WNW,9.2,-,0.00,Rain,Light Rain,290,2012-10-08 22:53:00
6:53 PM,54.0,45.0,72,29.78,10.0,West,9.2,-,0.00,Rain,Light Rain,270,2012-10-08 23:53:00
7:53 PM,53.1,42.1,66,29.79,10.0,West,11.5,-,0.00,,Overcast,270,2012-10-09 00:53:00
8:53 PM,52.0,43.0,71,29.81,10.0,West,8.1,-,N/A,,Overcast,280,2012-10-09 01:53:00
9:53 PM,51.1,44.1,77,29.81,10.0,West,8.1,-,0.00,,Overcast,280,2012-10-09 02:53:00
10:53 PM,50.0,45.0,83,29.82,10.0,West,8.1,-,0.00,,Overcast,270,2012-10-09 03:53:00
11:53 PM,50.0,43.0,77,29.81,10.0,West,10.4,-,N/A,,Overcast,280,2012-10-09 04:53:00